Location: Pardubice
(50.0330°N, 15.7830°E)
Time: 00:07:56
(UTC+02:00)

ISS - Visible Passes

Search period start: 02 October 2020 00:00
Search period end: 12 October 2020 00:00
Orbit: 419 x 421 km, 51.6° (Epoch: 02 October)

Date Brightness Start Highest point End Pass type
(mag) Time Alt. Az. Time Alt. Az. Time Alt. Az.
02 Oct -2.8 20:19:24 10° W 20:22:36 40° SSW 20:23:18 35° S visible
03 Oct -3.3 19:32:03 10° WNW 19:35:23 56° SSW 19:37:58 15° SE visible
03 Oct -0.9 21:09:58 10° WSW 21:10:57 13° WSW 21:10:57 13° WSW visible
04 Oct -1.6 20:22:03 10° W 20:24:33 19° SW 20:25:41 17° SSW visible
05 Oct -2.0 19:34:28 10° W 19:37:24 28° SW 19:40:19 10° SSE visible
07 Oct -0.9 19:37:33 10° WSW 19:39:11 13° SW 19:40:49 10° SSW visible
08 Oct -1.1 18:49:35 10° W 18:52:03 19° SW 18:54:31 10° S visible
